Location: ?????????
(54.7630°N, 39.4991°E)
Time: 21:41:53
(UTC+00:00)

Cosmos 2298 Rocket - Pass Details

Date: 14 April 2026
Orbit: 772 x 782 km, 74.0° (Epoch: 13 May)

Event Time Altitude Azimuth Distance (km) Brightness Sun altitude
Exits shadow 20:20:48 45° 228° (SW) 1,051 4.5 -24.3°
Maximum altitude 20:22:24 73° 300° (WNW) 819 4.1 -24.4°
Drops below altitude 10° 20:27:44 10° 25° (NNE) 2,346 7.1 -24.6°
Sets 20:30:09 0° 28° (NNE) 3,279 8.0 -24.7°
